Regional Weather Roundup
Issued by NWS

Home | Current Version | Previous Version | Graphics & Text | Print | Product List | Glossary On
Versions: 1 2 3 4 5 6 7 8 9 10 11 12 13 14 15 16 17 18 19 20 21 22 23 24 25 26 27 28 29 30 31 32 33 34 35 36 37 38 39 40 41 42 43 44 45 46 47 48 49 50
000
ASUS45 KBOU 090510
RWRCO

WEATHER ROUNDUP FOR COLORADO
NATIONAL WEATHER SERVICE DENVER/BOULDER CO
1100 PM MDT TUE JUL 08 2014

NOTE: "FAIR" INDICATES FEW OR NO CLOUDS BELOW 12000 FEET WITH NO
SIGNIFICANT WEATHER AND/OR OBSTRUCTIONS TO VISIBILITY.

COZ001>005-013-030-031-090600-
...NORTHWEST COLORADO...

CITY           SKY/WX    TMP DP  RH WIND       PRES   REMARKS
CRAIG          CLEAR     56  40  55 W5        30.17R
HAYDEN         CLEAR     66  36  32 SE9       30.19R
MEEKER         PTCLDY    63  42  46 N6        30.19R
MOUNT WERNER   CLEAR     61  32  33 NE9G18    30.54S
STEAMBOAT SPGS CLEAR     68  40  36 CALM      30.21S
WALDEN         CLEAR     55  43  62 CALM      30.34S
$$

COZ006>008-011-090600-
...WEST CENTRAL VALLEYS...

CITY           SKY/WX    TMP DP  RH WIND       PRES   REMARKS
GRAND JUNCTION MOCLDY    81  40  23 N7        30.07R
MONTROSE       MOCLDY    77  41  27 SE14      30.18R
EAGLE          PTCLDY    64  45  48 E13       30.23R
RIFLE          PTCLDY    73  37  27 SE12      30.11F
DELTA          MOCLDY    77  43  29 N3        30.13R
NUCLA          MOCLDY    72  41  33 CALM      30.24R
$$

COZ017>023-064>068-090600-
...SOUTHWEST COLORADO...

CITY           SKY/WX    TMP DP  RH WIND       PRES   REMARKS
DURANGO        MOCLDY    60  54  80 CALM      30.39R
CORTEZ         MOCLDY    69  52  54 SE12G25   30.29R
PAGOSA SPRINGS CLOUDY    62  46  56 CALM      30.48S
TELLURIDE      MOCLDY    57  45  62 CALM      30.48R
WOLF CREEK PAS NOT AVBL
$$

COZ009-010-012-014-032>034-037-058>063-090600-
...CENTRAL COLORADO...

CITY           SKY/WX    TMP DP  RH WIND       PRES   REMARKS
ASPEN          MOCLDY    66  42  41 SE17G30   30.33R
BUENA VISTA    CLOUDY    59  49  68 CALM      30.42S
COPPER MTN     PTCLDY    54  34  47 S18       30.67S
BERTHOUD PASS  FAIR      41  28  60 SE12      30.71S
COTTONWOOD PAS CLOUDY    59  41  51 W7        30.54F
GUNNISON       NOT AVBL
KREMMLING      CLEAR     63  37  39 CALM      30.30S
LEADVILLE      MOCLDY    49  41  74 CALM      30.52R
MONARCH PASS   CLOUDY    45  37  76 S23       30.79S
SALIDA         CLOUDY    66  46  47 E5        30.46F
SUNLIGHT       PTCLDY    59  32  36 CALM      30.58F
WILKERSON PASS PTCLDY    46  41  81 SW12G23   30.64F
$$

COZ069>075-090600-
...SAN LUIS VALLEY/SANGRE DE CRISTO MOUNTAINS...

CITY           SKY/WX    TMP DP  RH WIND       PRES   REMARKS
ALAMOSA        MOCLDY    58  48  69 S10       30.43R
LA VETA PASS   CLOUDY    48  41  76 SW6       30.58F
SAGUACHE       NOT AVBL
$$

COZ035-036-038>040-090600-
...NORTHERN COLORADO FRONT RANGE...

CITY           SKY/WX    TMP DP  RH WIND       PRES   REMARKS
DENVER INTL AP MOCLDY    68  54  60 S12       30.19F
DMNS CITY PARK   N/A     70  56  61 SW3G10    30.18F
AURORA         PTCLDY    67  52  57 S12       30.21F
FRONT RANGE AP NOT AVBL
ERIE MUNI ARPT PTCLDY    67  61  81 NW3       30.18S
BOULDER MUN AP PTCLDY    68  57  68 SW5       30.19F
CENTENNIAL     PTCLDY    68  51  54 S12       30.22F
BROOMFIELD     NOT AVBL
FORT COLLINS   CLEAR     66  57  72 CALM      30.19S
LONGMONT       PTCLDY    69  59  70 NW5       30.19F
$$

COZ041-046-047-076>085-087-088-090600-
...PIKES PEAK/PALMER DIVIDE AND SOUTHERN FOOTHILLS...

CITY           SKY/WX    TMP DP  RH WIND       PRES   REMARKS
COLO. SPRINGS  PTCLDY    59  52  77 NE5       30.29F
A. F. ACADEMY  PTCLDY    57  55  91 NW6       30.30F
ELLICOTT       NOT AVBL
FALCON         PTCLDY    58  50  73 W3        30.34F
FORT CARSON    PTCLDY    60  53  77 NW6       30.26F
LIMON          PTCLDY    61  55  81 SE6       30.23F
MONUMENT HILL  PTCLDY    57  50  77 S10G18    30.31F
TRINIDAD       CLOUDY    65  47  52 W8        30.30F
$$

COZ042>045-048>051-090-091-090600-
...NORTHEAST COLORADO...

CITY           SKY/WX    TMP DP  RH WIND       PRES   REMARKS
GREELEY ARPT   CLEAR     66  55  68 E9        30.17
AKRON          CLEAR     66  58  75 SE12      30.19F
BURLINGTON     PTCLDY    67  59  75 SE9       30.18F
WRAY           CLEAR     71  54  54 E8        30.15F
STERLING       CLEAR     72  57  60 SE5       30.14F
HOLYOKE        CLEAR     64  57  77 S8        30.15F
FORT MORGAN    CLOUDY    69  56  64 E7        30.18S
$$

COZ086-089-092>099-090600-
...SOUTHEAST COLORADO...

CITY           SKY/WX    TMP DP  RH WIND       PRES   REMARKS
PUEBLO         MOCLDY    67  54  63 W8        30.20S
LA JUNTA       CLOUDY    76  54  46 N6        30.16S
LAMAR          CLOUDY    76  53  44 SE13      30.13S
SPRINGFIELD      N/A     69  52  54 SE13      30.19F
$$



USA.gov is the U.S. government's official web portal to all federal, state and local government web resources and services.